[[{"header":{"parameterUnit":"m.s-1","parameterCategory":1,"la1":30.2991,"la2":30.254,"lo1":-89.0895,"lo2":-89.0444,"dy":0.0017,"dx":0.0017,"nx":28,"ny":28,"refTime":"2025-04-26T21:00:00:Z","depth":0,"parameterNumber":2,"parameterNumberName":"U-component_of_WINDS"},"data":[0,0,0,0,0,0,0,0,0,0,0,0,0,0,0,0,0,0,0,0,0,0,0,0,0,0,0,0,0,0,0,0,0,0,0,0,0,0,0,0,0,0,0,0,0,0,0,0,0,0,0,0,0,0,0,0,0,0,-2.3019,-2.3019,0,-2.3004,-2.3004,-2.3003,-2.3015,-2.3016,-2.3016,-2.3017,-2.2996,-2.2995,-2.2994,0,0,0,0,0,0,0,0,0,0,0,0,0,-2.3056,-2.3055,-2.3019,-2.3019,-2.3019,-2.3004,-2.3004,-2.3003,-2.3015,-2.3016,-2.3016,-2.3017,-2.2996,-2.2995,-2.2994,0,0,0,0,0,0,0,0,0,0,0,0,0,-2.304,-2.3055,-2.3019,-2.3023,-2.3023,-2.3004,-2.3004,-2.3003,-2.3015,-2.3016,-2.3017,-2.3017,-2.2997,-2.2995,-2.2994,-2.2968,0,0,-2.2989,-2.2988,0,0,0,0,0,0,0,0,-2.3041,-2.3039,-2.3023,-2.3023,-2.3023,-2.3012,-2.3009,-2.2991,-2.3015,-2.3018,-2.3017,-2.3018,-2.3,-2.2999,-2.2994,-2.2967,-2.2966,-2.2989,-2.2988,-2.2987,-2.2987,0,0,0,0,0,0,0,-2.3042,-2.304,-2.3013,-2.3022,-2.3023,-2.3025,-2.3023,-2.3006,-2.3005,-2.3018,-2.3019,-2.3017,-2.3001,-2.2995,-2.2993,-2.2966,-2.2989,-2.2987,-2.2986,-2.2986,-2.2919,-2.2919,0,0,0,0,0,0,-2.3043,-2.304,-2.3013,-2.3013,-2.3034,-2.3023,-2.3022,-2.3015,-2.3005,-2.3004,-2.3016,-2.3017,-2.2998,-2.2995,-2.2993,-2.2963,-2.2987,-2.2986,-2.2985,-2.292,-2.2919,-2.2918,0,0,0,0,0,0,-2.3044,-2.3041,-2.3014,-2.3027,-2.3024,-2.3022,-2.3014,-2.3014,-2.3009,-2.3004,-2.3003,-2.3011,-2.2998,-2.2995,-2.2975,-2.2962,-2.2985,-2.2983,-2.2921,-2.292,-2.2919,-2.2903,0,0,0,0,0,0,-2.3045,-2.3041,-2.3032,-2.3027,-2.3023,-2.2997,-2.3013,-2.3013,-2.3007,-2.3008,-2.2999,-2.2998,-2.2998,-2.2977,-2.2973,-2.2961,-2.2982,-2.2922,-2.2921,-2.2919,-2.2904,-2.2901,-2.2898,0,0,0,0,0,-2.3047,-2.3026,-2.3031,-2.3028,-2.3011,-2.2996,-2.2994,-2.2996,-2.3006,-2.2996,-2.2993,-2.2998,-2.2965,-2.2975,-2.2971,-2.2957,-2.2923,-2.2921,-2.2919,-2.2906,-2.2902,-2.2898,0,0,0,0,0,0,-2.3028,-2.3026,-2.3031,-2.3009,-2.3003,-2.2999,-2.2986,-2.2992,-2.2982,-2.2983,-2.2985,-2.2983,-2.2962,-2.2958,-2.2969,-2.2933,-2.2945,-2.2943,-2.2936,-2.2933,-2.293,-2.293,-2.2981,0,0,0,0,0,-2.3022,-2.3011,-2.3009,-2.299,-2.2987,-2.2987,-2.2981,-2.2983,-2.2977,-2.2974,-2.2969,-2.2961,-2.2949,-2.2941,-2.2929,-2.2905,-2.2903,-2.2894,-2.2891,-2.2888,-2.2885,-2.2873,-2.2868,-2.2912,-2.2912,-2.2912,0,0,-2.3007,-2.3005,-2.2998,-2.2986,-2.2982,-2.297,-2.2985,-2.2971,-2.2962,-2.2971,-2.2952,-2.2949,-2.2941,-2.2919,-2.2909,-2.2914,-2.2873,-2.2886,-2.2884,-2.2882,-2.287,-2.2866,-2.2862,-2.2911,-2.2911,-2.2912,0,0,-2.2976,-2.2973,-2.2957,-2.2954,-2.2948,-2.2949,-2.2945,-2.2941,-2.294,-2.2922,-2.2929,-2.2918,-2.2897,-2.2891,-2.2885,-2.2855,-2.2859,-2.2851,-2.2834,-2.2822,-2.2819,-2.2816,-2.2805,-2.2801,-2.2848,-2.2848,-2.2848,0,-2.2958,-2.2942,-2.2948,-2.2934,-2.2929,-2.294,-2.2924,-2.2919,-2.2909,-2.2905,-2.2913,-2.2888,-2.2883,-2.286,-2.2853,-2.2848,-2.2844,-2.2851,-2.2819,-2.2816,-2.2813,-2.2803,-2.2799,-2.2847,-2.2847,-2.2848,-2.2848,0,-2.2921,-2.2909,-2.2897,-2.289,-2.2884,-2.2869,-2.2872,-2.2865,-2.2869,-2.2869,-2.2851,-2.2846,-2.2835,-2.283,-2.2832,-2.2808,-2.2812,-2.2819,-2.2831,-2.2808,-2.2798,-2.2794,-2.2846,-2.2846,-2.2847,-2.2847,0,0,-2.2873,-2.2873,-2.2868,-2.2865,-2.2862,-2.2852,-2.2839,-2.283,-2.2823,-2.2817,-2.2805,-2.2789,-2.2797,-2.279,-2.2793,-2.2782,-2.2759,-2.2791,-2.2791,-2.2785,-2.2732,-2.2725,-2.2721,-2.2763,-2.2763,-2.2762,-2.2732,0,-2.2841,-2.2818,-2.2825,-2.2801,-2.2791,-2.2803,-2.2791,-2.2787,-2.2788,-2.2779,-2.2779,-2.2767,-2.2779,-2.2775,-2.2765,-2.2764,-2.2748,-2.2767,-2.2751,-2.275,-2.2751,-2.2715,-2.2708,-2.268,-2.2729,-2.2728,-2.2728,0,-2.2799,-2.2794,-2.277,-2.2771,-2.2767,-2.2756,-2.2749,-2.274,-2.2737,-2.2738,-2.2733,-2.2738,-2.2724,-2.2739,-2.2719,-2.2732,-2.2726,-2.2725,-2.2724,-2.2721,-2.2736,-2.271,-2.2671,-2.2666,-2.2722,-2.2722,-2.2723,0,-2.2766,-2.2754,-2.2738,-2.2736,-2.2736,-2.2728,-2.2727,-2.2725,-2.272,-2.2714,-2.271,-2.2702,-2.2697,-2.269,-2.2694,-2.2704,-2.2674,-2.2688,-2.2674,-2.2673,-2.2665,-2.2665,-2.2623,-2.2664,-2.2664,-2.2664,-2.2664,0,-2.2729,-2.2713,-2.2724,-2.2714,-2.2698,-2.2706,-2.269,-2.269,-2.2688,-2.2679,-2.2689,-2.2679,-2.2685,-2.2676,-2.2678,-2.2662,-2.266,-2.266,-2.266,-2.2658,-2.2658,-2.2653,-2.2654,-2.2663,-2.2663,-2.2663,-2.2663,0,-2.2688,-2.2694,-2.2678,-2.2681,-2.2681,-2.2669,-2.2671,-2.2662,-2.2665,-2.2652,-2.265,-2.2654,-2.2644,-2.2648,-2.2636,-2.2638,-2.2617,-2.2621,-2.2619,-2.2619,-2.2604,-2.2605,-2.2556,-2.255,-2.2596,-2.2596,-2.2595,0,-2.2662,-2.2651,-2.2654,-2.2649,-2.2649,-2.264,-2.2636,-2.2645,-2.2639,-2.2636,-2.2628,-2.2619,-2.2613,-2.2596,-2.2597,-2.2589,-2.2592,-2.2576,-2.2591,-2.2589,-2.2591,-2.2591,-2.259,-2.2572,-2.2571,-2.2571,-2.257,0,-2.2616,-2.2621,-2.2615,-2.2611,-2.2606,-2.2603,-2.26,-2.2595,-2.2604,-2.2598,-2.2589,-2.2584,-2.2575,-2.2566,-2.256,-2.2558,-2.2565,-2.2566,-2.2562,-2.2559,-2.2558,-2.2558,-2.2609,-2.2567,-2.2567,-2.2567,-2.2567,-2.2568,-2.2582,-2.2573,-2.2574,-2.2568,-2.2568,-2.2566,-2.2558,-2.2561,-2.2555,-2.2549,-2.2554,-2.2544,-2.2542,-2.2535,-2.2533,-2.2525,-2.2531,-2.2525,-2.2523,-2.2521,-2.2519,-2.2561,-2.2523,-2.2524,-2.2524,-2.2524,-2.2524,0,-2.2536,-2.2538,-2.2532,-2.253,-2.2525,-2.2536,-2.2534,-2.2529,-2.252,-2.2519,-2.2514,-2.2504,-2.2497,-2.2499,-2.2492,-2.2485,-2.2488,-2.2483,-2.2482,-2.2482,-2.2514,-2.2518,-2.2481,-2.2481,-2.2481,-2.2481,-2.2481,-2.2481,-2.2511,-2.2497,-2.2503,-2.2489,-2.2491,-2.2483,-2.2481,-2.2479,-2.2479,-2.2469,-2.2463,-2.2466,-2.2466,-2.246,-2.2454,-2.2455,-2.2451,-2.2444,-2.2446,-2.2475,-2.248,-2.2484,-2.2487,-2.2444,-2.2444,-2.2414,-2.2414,-2.2414]},{"header":{"parameterUnit":"m.s-1","parameterCategory":1,"la1":30.2991,"la2":30.254,"lo1":-89.0895,"lo2":-89.0444,"dy":0.0017,"dx":0.0017,"nx":28,"ny":28,"refTime":"2025-04-26T21:00:00:Z","depth":0,"parameterNumber":3,"parameterNumberName":"V-component_of_WINDS"},"data":[0,0,0,0,0,0,0,0,0,0,0,0,0,0,0,0,0,0,0,0,0,0,0,0,0,0,0,0,0,0,0,0,0,0,0,0,0,0,0,0,0,0,0,0,0,0,0,0,0,0,0,0,0,0,0,0,0,0,2.6566,2.6565,0,2.6475,2.6474,2.6473,2.6465,2.6466,2.6467,2.6467,2.6366,2.6362,2.6359,0,0,0,0,0,0,0,0,0,0,0,0,0,2.6729,2.6726,2.6566,2.6565,2.6564,2.6475,2.6474,2.6472,2.6464,2.6466,2.6467,2.6468,2.6367,2.6363,2.6358,0,0,0,0,0,0,0,0,0,0,0,0,0,2.665,2.6725,2.6567,2.655,2.6547,2.6475,2.6474,2.6472,2.6464,2.6466,2.6467,2.6468,2.6369,2.6363,2.6358,2.6294,0,0,2.6341,2.6339,0,0,0,0,0,0,0,0,2.6654,2.6644,2.6553,2.6551,2.6548,2.6483,2.6494,2.6412,2.6464,2.6495,2.6467,2.6469,2.6403,2.6395,2.6374,2.629,2.6285,2.6341,2.6337,2.6335,2.6334,0,0,0,0,0,0,0,2.666,2.6648,2.653,2.6552,2.6549,2.6545,2.6535,2.6478,2.6442,2.6493,2.6492,2.6482,2.6402,2.6379,2.6372,2.6284,2.6341,2.6336,2.6333,2.6331,2.6144,2.6142,0,0,0,0,0,0,2.667,2.6652,2.6533,2.6527,2.6606,2.6541,2.653,2.6502,2.6442,2.6435,2.648,2.6482,2.6388,2.6378,2.6368,2.629,2.6335,2.633,2.6327,2.6146,2.6144,2.6142,0,0,0,0,0,0,2.6673,2.6659,2.6537,2.659,2.6574,2.6536,2.6505,2.6499,2.6477,2.6433,2.6426,2.6465,2.6389,2.6376,2.6314,2.6287,2.6328,2.6323,2.6148,2.6145,2.6143,2.6134,0,0,0,0,0,0,2.6678,2.666,2.6637,2.6589,2.6571,2.6485,2.6503,2.6497,2.6469,2.6469,2.6416,2.6409,2.6389,2.6322,2.6308,2.628,2.6318,2.615,2.6147,2.6144,2.6137,2.6132,2.6127,0,0,0,0,0,2.6684,2.6636,2.6635,2.6621,2.6541,2.6484,2.6473,2.6453,2.6467,2.6442,2.6414,2.6411,2.6293,2.6316,2.63,2.627,2.6151,2.6147,2.6144,2.6139,2.6133,2.6128,0,0,0,0,0,0,2.6677,2.6629,2.6628,2.6564,2.6529,2.6482,2.645,2.6447,2.6404,2.6406,2.6381,2.637,2.6308,2.6283,2.631,2.6206,2.6223,2.6216,2.6225,2.6218,2.6214,2.622,2.6314,0,0,0,0,0,2.6669,2.6629,2.6588,2.6535,2.6518,2.6487,2.6461,2.645,2.6411,2.6394,2.6362,2.6322,2.6277,2.6246,2.6201,2.6134,2.6122,2.6106,2.6101,2.6098,2.6091,2.6054,2.6046,2.6129,2.6129,2.6129,0,0,2.665,2.6619,2.6594,2.6533,2.6504,2.6461,2.6474,2.6427,2.6395,2.6386,2.6327,2.6302,2.6256,2.6191,2.6161,2.6168,2.6066,2.6093,2.609,2.6085,2.6049,2.6042,2.6035,2.6127,2.6127,2.6128,0,0,2.6594,2.6567,2.652,2.6492,2.645,2.6431,2.642,2.6375,2.6359,2.63,2.6293,2.6253,2.6174,2.6142,2.6116,2.6052,2.6047,2.6038,2.6013,2.5977,2.5971,2.5965,2.5941,2.5933,2.6032,2.6032,2.6032,0,2.6575,2.6512,2.6496,2.6451,2.6424,2.6419,2.6371,2.6344,2.6287,2.6268,2.6278,2.6182,2.615,2.6078,2.6063,2.6042,2.6028,2.6042,2.5974,2.5967,2.5961,2.5939,2.593,2.6031,2.6031,2.6031,2.6031,0,2.6491,2.6447,2.6415,2.6365,2.6334,2.6288,2.6264,2.6235,2.6227,2.6207,2.6147,2.611,2.6058,2.6041,2.6031,2.5968,2.5974,2.5979,2.5995,2.5953,2.5931,2.5923,2.603,2.603,2.6031,2.6031,0,0,2.6424,2.6369,2.6357,2.6335,2.629,2.6255,2.6208,2.6161,2.6137,2.6099,2.6059,2.5995,2.6,2.597,2.5957,2.5926,2.5878,2.5935,2.5934,2.5925,2.5807,2.5802,2.5792,2.5876,2.5875,2.5873,2.581,0,2.6362,2.6281,2.6268,2.6197,2.6156,2.6153,2.6113,2.608,2.606,2.6022,2.6,2.5954,2.5965,2.5947,2.5917,2.5891,2.5854,2.5895,2.5836,2.5835,2.5847,2.5781,2.5775,2.5717,2.5802,2.58,2.5799,0,2.6277,2.6241,2.6167,2.613,2.6112,2.6077,2.6033,2.5998,2.596,2.5948,2.5917,2.5909,2.586,2.5881,2.5812,2.5841,2.5816,2.58,2.5797,2.5789,2.5813,2.577,2.5698,2.5689,2.5786,2.5787,2.5788,0,2.6235,2.6168,2.6116,2.6097,2.6052,2.6027,2.6007,2.5972,2.5945,2.5907,2.5889,2.5845,2.582,2.5785,2.5765,2.5782,2.5698,2.5717,2.5685,2.5685,2.5665,2.5666,2.5587,2.5652,2.5652,2.5652,2.5653,0,2.6166,2.6121,2.6097,2.6064,2.6014,2.5999,2.5948,2.5928,2.5897,2.586,2.5854,2.5818,2.5795,2.5755,2.5739,2.5685,2.5674,2.5662,2.5657,2.5661,2.5663,2.5643,2.5646,2.565,2.5651,2.5651,2.5651,0,2.6109,2.6092,2.6034,2.5998,2.5988,2.5952,2.592,2.5888,2.5871,2.5823,2.5811,2.5783,2.5737,2.5714,2.5656,2.5645,2.5584,2.5582,2.5597,2.5595,2.5564,2.5567,2.5468,2.5454,2.553,2.5529,2.5529,0,2.6065,2.6031,2.5992,2.5969,2.5949,2.591,2.5884,2.5868,2.5841,2.5798,2.5771,2.5726,2.5689,2.5615,2.5588,2.5544,2.5541,2.551,2.5534,2.5539,2.5539,2.5541,2.5537,2.5504,2.5503,2.5503,2.5502,0,2.5989,2.5983,2.5947,2.5909,2.5879,2.5847,2.5816,2.5796,2.5776,2.5745,2.57,2.5672,2.5615,2.557,2.5525,2.5502,2.5498,2.5496,2.5486,2.5488,2.5498,2.5492,2.5583,2.5497,2.5498,2.5498,2.5498,2.5499,2.5936,2.5906,2.5875,2.5836,2.5812,2.5784,2.5753,2.5733,2.5696,2.565,2.5644,2.5596,2.5561,2.5501,2.5477,2.5438,2.5444,2.543,2.5426,2.5422,2.5421,2.5506,2.5429,2.543,2.543,2.543,2.543,0,2.5859,2.584,2.5804,2.5763,2.5732,2.5736,2.5703,2.5676,2.5635,2.5604,2.5569,2.5518,2.5475,2.5446,2.5402,2.5377,2.5374,2.5366,2.5366,2.5361,2.5417,2.543,2.5369,2.5369,2.5369,2.5369,2.5369,2.5369,2.5815,2.5765,2.5756,2.5694,2.5675,2.563,2.5611,2.5584,2.556,2.5504,2.547,2.5453,2.5423,2.5378,2.5339,2.5331,2.5315,2.5306,2.5298,2.5351,2.5357,2.5363,2.5375,2.5303,2.5303,2.5245,2.5244,2.5244]}]]